Date String (YYYY-MM-DD hh:mm:ss) UTC,Instrument flags,Ambient pressure (hPa),Sample flow (lpm),Bypass flow (lpm),Sample temperature (°C),Ambient temperature (°C),ASC tube jacket temperature (°C),LED temperature (°C),Box temperature (°C),Sample RH (%),Span deviation,Mass concentration (μg/m³),Mass concentration (μg/m³),Mass concentration (μg/m³)
DateTimeUTC,F1_M11,P_M11,Q1_M11,Q2_M11,T1_M11,T2_M11,T3_M11,T4_M11,T5_M11,U1_M11,ZSPAN_M11,X0_M11,X2_M11,X1_M11
2022-06-15 21:00:00,,0823.7,5.00,0.00,29.4,28.6,00.0,38.1,31.4,06.9,0000.0,0003.62,0002.12,0001.54
2022-06-15 21:01:00,,0823.5,4.99,0.00,29.4,28.2,00.0,38.0,31.3,06.7,0000.0,0003.70,0002.08,0001.53
2022-06-15 21:02:00,,0823.5,5.01,0.00,29.3,27.4,00.0,38.0,31.0,06.5,0000.0,0003.73,0002.07,0001.51
2022-06-15 21:03:00,,0823.4,5.00,0.00,29.2,27.1,00.0,38.0,30.9,06.4,0000.0,0003.76,0002.08,0001.51
2022-06-15 21:04:00,,0823.5,5.01,0.00,29.2,27.1,00.0,38.0,30.9,06.6,0000.0,0003.72,0002.06,0001.52
2022-06-15 21:05:00,,0823.6,5.00,0.00,29.1,27.2,00.0,38.0,31.0,06.7,0000.0,0003.83,0002.09,0001.55
2022-06-15 21:06:00,,0823.6,4.99,0.00,29.1,27.4,00.0,38.0,31.0,06.6,0000.0,0003.99,0002.07,0001.55
2022-06-15 21:07:00,,0823.7,5.00,0.00,29.1,27.6,00.0,38.0,31.1,06.6,0000.0,0003.91,0002.05,0001.54
2022-06-15 21:08:00,,0823.7,5.01,0.00,29.2,27.8,00.0,38.0,31.1,06.7,0000.0,0003.93,0002.05,0001.55
2022-06-15 21:09:00,,0823.7,5.00,0.00,29.2,28.0,00.0,38.0,31.2,06.5,0000.0,0003.99,0002.08,0001.55
2022-06-15 21:10:00,,0823.8,5.00,0.00,29.2,28.1,00.0,38.0,31.2,06.4,0000.0,0003.99,0002.09,0001.56
2022-06-15 21:11:00,,0823.8,4.98,0.00,29.3,28.3,00.0,38.0,31.3,06.4,0000.0,0003.70,0002.03,0001.57
2022-06-15 21:12:00,,0823.7,5.00,0.00,29.3,28.4,00.0,38.1,31.3,06.4,0000.0,0003.64,0002.11,0001.60
2022-06-15 21:13:00,,0823.7,5.01,0.00,29.4,28.5,00.0,38.1,31.4,06.4,0000.0,0003.66,0002.11,0001.61
2022-06-15 21:14:00,,0823.7,5.01,0.00,29.4,28.4,00.0,38.1,31.4,06.3,0000.0,0004.15,0002.12,0001.62
2022-06-15 21:15:00,,0823.7,4.99,0.00,29.3,27.7,00.0,38.0,31.1,06.2,0000.0,0004.36,0002.19,0001.65
2022-06-15 21:16:00,,0823.7,5.00,0.00,29.2,27.2,00.0,38.0,30.9,06.1,0000.0,0004.27,0002.16,0001.64
2022-06-15 21:17:00,,0823.6,5.00,0.00,29.2,27.1,00.0,38.0,30.9,06.6,0000.0,0004.07,0002.18,0001.64
2022-06-15 21:18:00,,0823.6,5.01,0.00,29.1,27.2,00.0,38.0,30.9,07.0,0000.0,0004.40,0002.20,0001.64
2022-06-15 21:19:00,,0823.7,4.99,0.00,29.1,27.3,00.0,38.0,31.0,06.9,0000.0,0004.44,0002.22,0001.66
2022-06-15 21:20:00,,0823.7,4.99,0.00,29.1,27.5,00.0,38.0,31.0,07.1,0000.0,0004.38,0002.21,0001.67
2022-06-15 21:21:00,,0823.6,4.99,0.00,29.2,27.7,00.0,38.0,31.1,07.2,0000.0,0004.60,0002.26,0001.68
2022-06-15 21:22:00,,0823.6,5.00,0.00,29.2,27.9,00.0,38.0,31.2,07.4,0000.0,0005.41,0002.43,0001.68
2022-06-15 21:23:00,,0823.7,5.00,0.00,29.2,28.1,00.0,38.0,31.2,07.7,0000.0,0005.73,0002.53,0001.69
2022-06-15 21:24:00,,0823.7,5.00,0.00,29.3,28.2,00.0,38.0,31.3,07.5,0000.0,0005.73,0002.56,0001.69
2022-06-15 21:25:00,,0823.6,5.00,0.00,29.3,28.4,00.0,38.0,31.3,07.1,0000.0,0005.46,0002.60,0001.71
2022-06-15 21:26:00,,0823.7,4.99,0.00,29.4,28.5,00.0,38.1,31.4,07.1,0000.0,0005.21,0002.55,0001.70
2022-06-15 21:27:00,,0823.7,4.99,0.00,29.4,28.6,00.0,38.1,31.4,07.1,0000.0,0005.35,0002.57,0001.71
2022-06-15 21:28:00,,0823.7,5.01,0.00,29.4,27.9,00.0,38.1,31.2,07.1,0000.0,0005.18,0002.54,0001.72
2022-06-15 21:29:00,,0823.6,5.00,0.00,29.3,27.2,00.0,38.0,31.0,06.9,0000.0,0004.83,0002.52,0001.72
2022-06-15 21:30:00,,0823.6,5.00,0.00,29.2,27.1,00.0,38.0,31.0,07.1,0000.0,0004.84,0002.52,0001.72
2022-06-15 21:31:00,,0823.7,5.01,0.00,29.2,27.1,00.0,38.0,31.0,07.5,0000.0,0004.83,0002.51,0001.72
2022-06-15 21:32:00,,0823.7,5.00,0.00,29.2,27.3,00.0,38.0,31.0,07.3,0000.0,0005.11,0002.50,0001.71
2022-06-15 21:33:00,,0823.7,5.00,0.00,29.2,27.5,00.0,38.0,31.1,07.1,0000.0,0004.86,0002.36,0001.71
2022-06-15 21:34:00,,0823.7,4.99,0.00,29.2,27.7,00.0,38.0,31.1,07.2,0000.0,0004.55,0002.25,0001.70
2022-06-15 21:35:00,,0823.7,5.00,0.00,29.2,27.9,00.0,38.0,31.2,07.6,0000.0,0004.42,0002.21,0001.70
2022-06-15 21:36:00,,0823.7,5.00,0.00,29.3,28.1,00.0,38.0,31.2,07.5,0000.0,0004.51,0002.24,0001.70
2022-06-15 21:37:00,,0823.7,5.00,0.00,29.3,28.2,00.0,38.0,31.3,07.2,0000.0,0005.27,0002.37,0001.72
2022-06-15 21:38:00,,0823.7,5.01,0.00,29.3,28.4,00.0,38.1,31.4,07.3,0000.0,0006.61,0002.41,0001.73
2022-06-15 21:39:00,,0823.7,5.00,0.00,29.4,28.5,00.0,38.1,31.4,07.1,0000.0,0006.98,0002.43,0001.73
2022-06-15 21:40:00,,0823.7,5.00,0.00,29.4,28.5,00.0,38.1,31.4,06.8,0000.0,0007.08,0002.46,0001.74
2022-06-15 21:41:00,,0823.7,4.98,0.00,29.4,27.7,00.0,38.1,31.2,06.8,0000.0,0007.13,0002.48,0001.73
2022-06-15 21:42:00,,0823.7,5.01,0.00,29.3,27.2,00.0,38.0,31.0,07.3,0000.0,0007.13,0002.49,0001.75
2022-06-15 21:43:00,,0823.7,5.00,0.00,29.3,27.1,00.0,38.0,31.0,07.8,0000.0,0007.00,0002.50,0001.76
2022-06-15 21:44:00,,0823.7,5.00,0.00,29.2,27.2,00.0,38.0,31.0,07.9,0000.0,0006.54,0002.50,0001.76
2022-06-15 21:45:00,,0823.7,5.00,0.00,29.2,27.4,00.0,38.0,31.0,07.8,0000.0,0006.49,0002.49,0001.77
2022-06-15 21:46:00,,0823.7,4.99,0.00,29.2,27.6,00.0,38.0,31.1,07.7,0000.0,0006.54,0002.50,0001.78
2022-06-15 21:47:00,,0823.7,5.01,0.00,29.2,27.8,00.0,38.0,31.2,07.5,0000.0,0006.43,0002.48,0001.77
2022-06-15 21:48:00,,0823.7,5.00,0.00,29.2,27.9,00.0,38.0,31.2,07.4,0000.0,0005.82,0002.37,0001.76
2022-06-15 21:49:00,,0823.7,4.99,0.00,29.3,28.1,00.0,38.0,31.3,07.6,0000.0,0004.62,0002.31,0001.74
2022-06-15 21:50:00,,0823.7,5.00,0.00,29.3,28.3,00.0,38.1,31.4,08.0,0000.0,0005.59,0002.33,0001.74
2022-06-15 21:51:00,,0823.7,5.00,0.00,29.4,28.4,00.0,38.1,31.4,07.9,0000.0,0005.54,0002.31,0001.73
2022-06-15 21:52:00,,0823.7,5.01,0.00,29.4,28.6,00.0,38.1,31.5,07.6,0000.0,0005.53,0002.31,0001.73
2022-06-15 21:53:00,,0823.7,5.00,0.00,29.4,28.5,00.0,38.1,31.4,07.6,0000.0,0005.56,0002.28,0001.71
2022-06-15 21:54:00,,0823.7,5.01,0.00,29.4,27.6,00.0,38.1,31.1,07.6,0000.0,0005.39,0002.24,0001.69
2022-06-15 21:55:00,,0823.7,4.99,0.00,29.3,27.2,00.0,38.0,31.0,07.7,0000.0,0005.29,0002.23,0001.68
2022-06-15 21:56:00,,0823.7,5.01,0.00,29.3,27.2,00.0,38.0,31.0,07.6,0000.0,0005.35,0002.25,0001.67
2022-06-15 21:57:00,,0823.7,5.00,0.00,29.2,27.3,00.0,38.0,31.0,07.5,0000.0,0005.26,0002.22,0001.66
2022-06-15 21:58:00,,0823.7,4.99,0.00,29.2,27.4,00.0,38.0,31.1,07.4,0000.0,0005.20,0002.21,0001.66
2022-06-15 21:59:00,,0823.7,5.01,0.00,29.2,27.6,00.0,38.0,31.1,07.3,0000.0,0005.19,0002.19,0001.65
